Will Rogers World Airport Oklahoma City US
ICAO: KOKC
IATA: OKC
Category: Large
Scheduled Services: Yes

Elevation: 1295 ft
TransAlt. 18000 ft.

Airport Communications:
OKE CITY APP/DEP:120.45
ATIS:125.85
CLNC DEL:124.35
GND:121.9
ANG OPS COMD POST:22.56
ROGERS TWR:119.35

KOKC Zoom In..

Runways:

(A) RW 13 length 7800 ft width 150 ft
---- / hdg 130

(B) RW 17L length 9802 ft width 150 ft
ILS 110.90 / hdg 175

(C) RW 17R length 9800 ft width 150 ft
ILS 110.70 / hdg 175

(D) RW 18 length 3078 ft width 75 ft
---- / hdg 175

(E) RW 31 length 7800 ft width 150 ft
---- / hdg 310

(F) RW 35L length 9800 ft width 150 ft
ILS 110.70 / hdg 355

(G) RW 35R length 9802 ft width 150 ft
ILS 110.90 / hdg 355

(H) RW 36 length 3078 ft width 75 ft
---- / hdg 355

Location; KOKC
Day. 22 / Time. 21.52 Zulu
* Altimeter: 29.99
* Temperature: 13° c. 55.4°f.
* Wind from: 170° Speed 16 kn with Gusts up to 21 kn.
Dewpoint: 00° c.
Visibility: 10 Statute Miles.
Clouds: Broken 4400 ft.
Clouds: Overcast 6500 ft.

KOKC 222152Z 17016G21KT 10SM BKN044 OVC065 13/00 A2999 RMK AO2 RAE15 SLP155 P0000 T01280000

Going to: --> -->


Wind From 170°
Speed 16 kn.

 
 
jpsmedia worldairports.se 2021   terms of use